OBJECT C

Basic Information
Catalog Number:
58851
Catalog Name:
OBJECT C
International ID:
2024-018C
Orbit Center:
EARTH
Object Status:
In Orbit
Launch Date:
2024-01-28 UTC
Country:
伊朗 (IR)
Orbital Information
Data Source: International Orbital Data AOE Orbital Data
Epoch Time: 2026-09-04T01:36:48+0800 2026-09-02T18:00:00+0800
Semi-major Axis: 7132.032km 7132.062km
Eccentricity: 0.0420018 0.0420251
Inclination: 58.686° 58.687°
Argument of Perigee: 200.383° 198.804°
RAAN: 307.358° 311.987°
Mean Anomaly: 157.999° 162.930°
Perigee: 454.336km 454.199km
Apogee: 1053.454km 1053.651km
Period: 99.903分钟 99.904分钟
Mean Motion: 14.413947 14.413854
Detailed Information
Launch Site:
SEM
Orbital Altitude:
LEO
Data Source:
AOE Working Group
Reference Frame:
TEME
Time System:
UTC
Epoch Type:
SGP4
2D Orbital Map
3D Orbital Map
Orbital Altitude Analysis
Orbital Inclination Analysis
Orbit Comprehensive Analysis Chart
View Comprehensive Chart